Location: Capannuccia
(43.7000°N, 11.3000°E)
Time: 02:20:31
(UTC+00:00)

Shenzhou-11 Module - Pass Details

Date: 07 June 2020
Orbit: 265 x 286 km, 42.8° (Epoch: 05 July)

Event Time Altitude Azimuth Distance (km) Brightness Sun altitude
Exits shadow 02:25:16 13° 268° (W) 929 3.6 -10.3°
Maximum altitude 02:27:17 63° 187° (S) 301 1.3 -10.1°
Drops below altitude 10° 02:29:38 10° 105° (ESE) 1,067 4.7 -9.8°
Sets 02:31:33 0° 102° (ESE) 1,878 6.1 -9.5°
